EZY152M EGKK-EGPH

Flight info

Callsign EZY152M
Flight time 1h 0m
Altitude 38000
Route LAM L10 BPK UN601 RIBEL DCT INPIP
Aircraft A20N/M-SDE2E3FGHIRWXY/LB1

Departure

Time 2026-04-25 20:57
Airport London Gatwick Airport (EGKK)

Arrival

Time 2026-04-25 21:57
Airport Edinburgh Airport (EGPH)
Time Latitude Longitude Altitude Speed Heading
2026-04-25 19:46 51.15350 -0.17697 200 ft 0 kts 347°
2026-04-25 20:20 51.15339 -0.17694 200 ft 2 kts 346°
2026-04-25 20:20 51.15324 -0.17688 200 ft 2 kts 348°
2026-04-25 20:21 51.15310 -0.17683 200 ft 2 kts 347°
2026-04-25 20:21 51.15296 -0.17678 200 ft 0 kts 347°
2026-04-25 20:21 51.15286 -0.17674 200 ft 2 kts 324°
2026-04-25 20:21 51.15276 -0.17655 200 ft 2 kts 289°
2026-04-25 20:22 51.15274 -0.17637 200 ft 0 kts 262°
2026-04-25 20:22 51.15276 -0.17629 200 ft 1 kts 254°
2026-04-25 20:22 51.15276 -0.17624 200 ft 0 kts 258°
2026-04-25 20:24 51.15276 -0.17625 200 ft 0 kts 258°
2026-04-25 20:25 51.15276 -0.17629 200 ft 3 kts 257°
2026-04-25 20:25 51.15257 -0.17770 200 ft 14 kts 257°
2026-04-25 20:25 51.15243 -0.17866 200 ft 0 kts 255°
2026-04-25 20:26 51.15236 -0.17908 200 ft 11 kts 255°
2026-04-25 20:26 51.15213 -0.18038 200 ft 10 kts 229°
2026-04-25 20:26 51.15172 -0.18067 200 ft 0 kts 189°
2026-04-25 20:27 51.15171 -0.18067 200 ft 0 kts 189°
2026-04-25 20:28 51.15119 -0.18145 200 ft 15 kts 255°
2026-04-25 20:28 51.15095 -0.18318 200 ft 16 kts 259°
2026-04-25 20:28 51.15067 -0.18527 200 ft 20 kts 258°
2026-04-25 20:28 51.15038 -0.18740 200 ft 19 kts 257°
2026-04-25 20:29 51.15008 -0.18954 200 ft 19 kts 257°
2026-04-25 20:29 51.14978 -0.19162 200 ft 18 kts 261°
2026-04-25 20:29 51.15036 -0.19298 200 ft 12 kts 295°
2026-04-25 20:29 51.15033 -0.19447 200 ft 15 kts 254°
2026-04-25 20:30 51.15011 -0.19609 200 ft 12 kts 258°
2026-04-25 20:30 51.14991 -0.19752 200 ft 13 kts 257°
2026-04-25 20:30 51.14975 -0.19864 200 ft 13 kts 257°
2026-04-25 20:30 51.14948 -0.20064 200 ft 22 kts 258°
2026-04-25 20:31 51.14914 -0.20306 200 ft 22 kts 258°
2026-04-25 20:31 51.14881 -0.20543 200 ft 21 kts 258°
2026-04-25 20:31 51.14850 -0.20768 200 ft 20 kts 256°
2026-04-25 20:31 51.14820 -0.20983 200 ft 19 kts 258°
2026-04-25 20:32 51.14802 -0.21120 200 ft 9 kts 256°
2026-04-25 20:32 51.14790 -0.21163 200 ft 0 kts 245°
2026-04-25 20:33 51.14785 -0.21182 200 ft 7 kts 251°
2026-04-25 20:33 51.14769 -0.21288 200 ft 9 kts 257°
2026-04-25 20:33 51.14758 -0.21359 200 ft 3 kts 255°
2026-04-25 20:33 51.14752 -0.21380 200 ft 3 kts 233°
2026-04-25 20:34 51.14720 -0.21403 200 ft 1 kts 176°
2026-04-25 20:37 51.14718 -0.21402 200 ft 0 kts 176°
2026-04-25 20:37 51.14714 -0.21402 200 ft 1 kts 175°
2026-04-25 20:37 51.14697 -0.21397 200 ft 3 kts 167°
2026-04-25 20:38 51.14676 -0.21380 200 ft 4 kts 145°
2026-04-25 20:38 51.14673 -0.21376 200 ft 0 kts 138°
2026-04-25 20:40 51.14656 -0.21353 200 ft 5 kts 144°
2026-04-25 20:41 51.14627 -0.21331 200 ft 2 kts 164°
2026-04-25 20:41 51.14624 -0.21330 200 ft 0 kts 165°
2026-04-25 20:41 51.14623 -0.21330 200 ft 0 kts 167°
2026-04-25 20:54 51.14622 -0.21329 200 ft 2 kts 167°
2026-04-25 20:54 51.14619 -0.21328 200 ft 0 kts 167°
2026-04-25 20:55 51.14618 -0.21328 200 ft 0 kts 167°
2026-04-25 20:55 51.14607 -0.21324 200 ft 8 kts 167°
2026-04-25 20:56 51.14526 -0.21233 200 ft 16 kts 111°
2026-04-25 20:56 51.14528 -0.21105 200 ft 0 kts 79°
2026-04-25 20:56 51.14529 -0.21096 200 ft 1 kts 79°
2026-04-25 20:56 51.14579 -0.20730 200 ft 73 kts 78°
2026-04-25 20:57 51.14741 -0.19554 200 ft 141 kts 77°
2026-04-25 20:57 51.14977 -0.17790 430 ft 174 kts 78°
2026-04-25 20:57 51.15248 -0.15933 1156 ft 176 kts 77°
2026-04-25 20:57 51.15538 -0.14035 1985 ft 177 kts 77°
2026-04-25 20:58 51.15803 -0.12115 2686 ft 186 kts 77°
2026-04-25 20:58 51.16085 -0.09987 3257 ft 203 kts 77°
2026-04-25 20:58 51.16446 -0.07722 3804 ft 222 kts 68°
2026-04-25 20:58 51.17199 -0.05448 4329 ft 243 kts 54°
2026-04-25 20:59 51.18256 -0.03194 4823 ft 263 kts 52°
2026-04-25 20:59 51.19376 -0.00902 4993 ft 261 kts 51°
2026-04-25 20:59 51.20497 0.01390 4996 ft 260 kts 52°
2026-04-25 20:59 51.21608 0.03675 5052 ft 261 kts 52°
2026-04-25 21:00 51.22725 0.05982 5403 ft 268 kts 52°
2026-04-25 21:00 51.23482 0.07549 5756 ft 266 kts 52°
2026-04-25 21:00 51.25390 0.13654 6235 ft 268 kts 77°
2026-04-25 21:01 51.25740 0.16573 6232 ft 268 kts 78°
2026-04-25 21:01 51.26070 0.19541 6238 ft 269 kts 78°
2026-04-25 21:01 51.26403 0.22483 6282 ft 273 kts 78°
2026-04-25 21:01 51.26751 0.25490 6907 ft 281 kts 78°
2026-04-25 21:02 51.27105 0.28527 8011 ft 279 kts 78°
2026-04-25 21:02 51.27490 0.31543 8948 ft 282 kts 71°
2026-04-25 21:02 51.28469 0.34243 9790 ft 285 kts 43°
2026-04-25 21:02 51.30106 0.35890 10634 ft 286 kts 17°
2026-04-25 21:03 51.32064 0.36216 11466 ft 288 kts 351°
2026-04-25 21:03 51.33986 0.35229 12315 ft 291 kts 336°
2026-04-25 21:03 51.35846 0.33942 12893 ft 300 kts 334°
2026-04-25 21:03 51.37778 0.32388 13214 ft 322 kts 332°
2026-04-25 21:04 51.39821 0.30636 13243 ft 337 kts 331°
2026-04-25 21:04 51.41898 0.28833 13245 ft 339 kts 331°
2026-04-25 21:04 51.43960 0.27037 13246 ft 339 kts 331°
2026-04-25 21:04 51.46057 0.25209 13248 ft 339 kts 331°
2026-04-25 21:05 51.48106 0.23422 13249 ft 339 kts 331°
2026-04-25 21:05 51.50213 0.21583 13317 ft 344 kts 331°
2026-04-25 21:05 51.52319 0.19744 13932 ft 350 kts 331°
2026-04-25 21:05 51.54462 0.17873 14876 ft 348 kts 331°
2026-04-25 21:06 51.56571 0.16040 15692 ft 350 kts 331°
2026-04-25 21:06 51.58726 0.14173 16444 ft 353 kts 331°
2026-04-25 21:06 51.60901 0.12292 17181 ft 356 kts 331°
2026-04-25 21:06 51.62371 0.11022 17672 ft 358 kts 331°
2026-04-25 21:07 51.65272 0.08519 18606 ft 361 kts 331°
2026-04-25 21:07 51.67508 0.06591 19064 ft 363 kts 331°
2026-04-25 21:07 51.69754 0.04655 19228 ft 365 kts 331°
2026-04-25 21:07 51.71994 0.02722 19231 ft 365 kts 331°
2026-04-25 21:08 51.74250 0.00773 19233 ft 365 kts 331°
2026-04-25 21:08 51.76505 -0.01176 19233 ft 365 kts 331°
2026-04-25 21:08 51.78738 -0.03105 19232 ft 365 kts 331°
2026-04-25 21:08 51.81001 -0.05062 19231 ft 366 kts 331°
2026-04-25 21:09 51.85498 -0.08948 19231 ft 367 kts 331°
2026-04-25 21:09 51.87727 -0.10876 19232 ft 367 kts 331°
2026-04-25 21:09 51.90008 -0.12852 19232 ft 367 kts 331°
2026-04-25 21:10 51.92277 -0.14819 19359 ft 373 kts 331°
2026-04-25 21:10 51.94560 -0.16798 19997 ft 375 kts 331°
2026-04-25 21:10 51.96898 -0.18821 20754 ft 375 kts 331°
2026-04-25 21:10 51.99202 -0.20807 21399 ft 378 kts 331°
2026-04-25 21:11 52.01516 -0.22796 21993 ft 381 kts 331°
2026-04-25 21:11 52.03868 -0.24814 22577 ft 384 kts 331°
2026-04-25 21:11 52.06237 -0.26842 23149 ft 387 kts 331°
2026-04-25 21:11 52.08617 -0.28875 23697 ft 390 kts 331°
2026-04-25 21:12 52.11052 -0.30954 24239 ft 393 kts 331°
2026-04-25 21:12 52.13479 -0.33027 24774 ft 396 kts 331°
2026-04-25 21:12 52.15934 -0.35121 25298 ft 399 kts 331°
2026-04-25 21:12 52.17560 -0.36517 25636 ft 401 kts 329°
2026-04-25 21:13 52.20495 -0.40198 26268 ft 402 kts 312°
2026-04-25 21:13 52.22114 -0.43940 26734 ft 404 kts 297°
2026-04-25 21:13 52.23063 -0.48222 27192 ft 407 kts 284°
2026-04-25 21:13 52.23620 -0.52783 27664 ft 410 kts 282°
2026-04-25 21:14 52.24513 -0.57164 28009 ft 412 kts 300°
2026-04-25 21:14 52.26367 -0.60714 28390 ft 415 kts 322°
2026-04-25 21:14 52.28842 -0.63090 28839 ft 418 kts 332°
2026-04-25 21:14 52.31446 -0.65302 29226 ft 421 kts 330°
2026-04-25 21:15 52.34013 -0.67626 29596 ft 423 kts 328°
2026-04-25 21:15 52.36565 -0.70053 30069 ft 423 kts 328°
2026-04-25 21:15 52.39093 -0.72515 30612 ft 421 kts 327°
2026-04-25 21:15 52.41596 -0.74971 31148 ft 420 kts 327°
2026-04-25 21:16 52.44094 -0.77432 31654 ft 419 kts 327°
2026-04-25 21:16 52.46583 -0.79885 32106 ft 418 kts 327°
2026-04-25 21:16 52.49088 -0.82357 32524 ft 418 kts 327°
2026-04-25 21:16 52.51603 -0.84842 32914 ft 419 kts 327°
2026-04-25 21:17 52.54074 -0.87285 33296 ft 419 kts 327°
2026-04-25 21:17 52.56573 -0.89760 33693 ft 419 kts 327°
2026-04-25 21:17 52.59054 -0.92222 34061 ft 419 kts 327°
2026-04-25 21:17 52.61514 -0.94664 34419 ft 419 kts 327°
2026-04-25 21:18 52.64064 -0.97198 34756 ft 419 kts 327°
2026-04-25 21:18 52.66544 -0.99666 35022 ft 420 kts 327°
2026-04-25 21:18 52.69045 -1.02158 35292 ft 420 kts 327°
2026-04-25 21:18 52.71529 -1.04639 35547 ft 420 kts 327°
2026-04-25 21:19 52.74055 -1.07162 35806 ft 420 kts 328°
2026-04-25 21:19 52.76509 -1.09616 36059 ft 420 kts 327°
2026-04-25 21:19 52.78997 -1.12105 36319 ft 419 kts 327°
2026-04-25 21:19 52.81453 -1.14567 36548 ft 419 kts 327°
2026-04-25 21:20 52.83997 -1.17124 36775 ft 420 kts 327°
2026-04-25 21:20 52.85646 -1.18783 36927 ft 421 kts 327°
2026-04-25 21:20 52.88995 -1.22159 37231 ft 422 kts 327°
2026-04-25 21:20 52.91505 -1.24695 37447 ft 424 kts 327°
2026-04-25 21:21 52.93998 -1.27215 37647 ft 425 kts 327°
2026-04-25 21:21 52.96508 -1.29754 37841 ft 426 kts 327°
2026-04-25 21:21 52.99045 -1.32323 38025 ft 427 kts 328°
2026-04-25 21:21 53.01531 -1.34843 38183 ft 428 kts 327°
2026-04-25 21:22 53.06676 -1.40071 38270 ft 430 kts 327°
2026-04-25 21:22 53.11727 -1.45219 38271 ft 430 kts 327°
2026-04-25 21:23 53.16799 -1.50405 38273 ft 431 kts 327°
2026-04-25 21:23 53.21911 -1.55647 38268 ft 431 kts 327°
2026-04-25 21:24 53.26972 -1.60852 38266 ft 431 kts 327°
2026-04-25 21:24 53.32151 -1.66194 38264 ft 431 kts 326°
2026-04-25 21:25 53.37269 -1.71484 38263 ft 432 kts 326°
2026-04-25 21:25 53.42388 -1.76796 38263 ft 432 kts 326°
2026-04-25 21:26 53.47483 -1.82096 38252 ft 432 kts 327°
2026-04-25 21:26 53.52610 -1.87433 38250 ft 432 kts 327°
2026-04-25 21:27 53.57725 -1.92779 38252 ft 433 kts 326°
2026-04-25 21:27 53.62836 -1.98137 38257 ft 433 kts 326°
2026-04-25 21:28 53.67978 -2.03552 38257 ft 434 kts 326°
2026-04-25 21:28 53.73127 -2.08805 38252 ft 434 kts 330°
2026-04-25 21:29 53.78595 -2.13212 38251 ft 437 kts 335°
2026-04-25 21:29 53.84226 -2.17057 38248 ft 437 kts 336°
2026-04-25 21:30 53.89858 -2.20883 38256 ft 436 kts 336°
2026-04-25 21:30 53.94543 -2.24093 38261 ft 437 kts 336°
2026-04-25 21:31 54.01089 -2.28594 38258 ft 437 kts 336°
2026-04-25 21:31 54.06728 -2.32483 38048 ft 437 kts 336°
2026-04-25 21:32 54.09525 -2.34412 37730 ft 428 kts 336°
2026-04-25 21:32 54.12260 -2.36303 37419 ft 419 kts 336°
2026-04-25 21:32 54.14944 -2.38163 37109 ft 410 kts 336°
2026-04-25 21:32 54.17551 -2.39972 36805 ft 402 kts 336°
2026-04-25 21:33 54.20116 -2.41755 36538 ft 394 kts 336°
2026-04-25 21:33 54.22633 -2.43507 36285 ft 389 kts 336°
2026-04-25 21:33 54.25135 -2.45253 35741 ft 390 kts 336°
2026-04-25 21:33 54.27683 -2.47037 35188 ft 405 kts 336°
2026-04-25 21:34 54.30336 -2.48896 34617 ft 417 kts 336°
2026-04-25 21:34 54.33046 -2.50792 33975 ft 425 kts 336°
2026-04-25 21:34 54.35775 -2.52703 33340 ft 424 kts 336°
2026-04-25 21:34 54.38485 -2.54601 32700 ft 419 kts 336°
2026-04-25 21:35 54.41172 -2.56486 32088 ft 414 kts 336°
2026-04-25 21:35 54.43802 -2.58337 31510 ft 410 kts 336°
2026-04-25 21:35 54.46422 -2.60183 30933 ft 406 kts 336°
2026-04-25 21:35 54.49030 -2.62024 30346 ft 402 kts 336°
2026-04-25 21:36 54.51607 -2.63847 29747 ft 398 kts 336°
2026-04-25 21:36 54.54162 -2.65655 29151 ft 393 kts 335°
2026-04-25 21:36 54.56657 -2.67425 28565 ft 389 kts 335°
2026-04-25 21:36 54.59146 -2.69193 27977 ft 385 kts 335°
2026-04-25 21:37 54.61594 -2.70934 27387 ft 381 kts 335°
2026-04-25 21:37 54.63232 -2.72099 26994 ft 378 kts 335°
2026-04-25 21:37 54.66448 -2.74390 26225 ft 385 kts 335°
2026-04-25 21:37 54.68955 -2.76184 25635 ft 394 kts 335°
2026-04-25 21:38 54.71514 -2.78012 25043 ft 392 kts 335°
2026-04-25 21:38 54.74007 -2.79794 24477 ft 389 kts 335°
2026-04-25 21:38 54.76491 -2.81573 23907 ft 386 kts 335°
2026-04-25 21:38 54.78965 -2.83348 23347 ft 383 kts 335°
2026-04-25 21:39 54.81400 -2.85098 22796 ft 380 kts 335°
2026-04-25 21:39 54.83829 -2.86846 22246 ft 377 kts 335°
2026-04-25 21:39 54.86228 -2.88575 21745 ft 373 kts 335°
2026-04-25 21:39 54.88619 -2.90300 21255 ft 371 kts 335°
2026-04-25 21:40 54.90991 -2.92011 20759 ft 368 kts 335°
2026-04-25 21:40 54.93356 -2.93718 20263 ft 366 kts 335°
2026-04-25 21:40 54.95698 -2.95411 19771 ft 363 kts 336°
2026-04-25 21:40 54.98017 -2.97089 19239 ft 361 kts 336°
2026-04-25 21:41 55.00333 -2.98770 18659 ft 358 kts 336°
2026-04-25 21:41 55.02585 -3.00407 18114 ft 355 kts 336°
2026-04-25 21:41 55.04851 -3.02061 17551 ft 353 kts 336°
2026-04-25 21:41 55.07115 -3.03712 16977 ft 350 kts 335°
2026-04-25 21:42 55.09350 -3.05341 16406 ft 348 kts 336°
2026-04-25 21:42 55.11596 -3.06979 15827 ft 347 kts 336°
2026-04-25 21:42 55.13815 -3.08607 15251 ft 345 kts 336°
2026-04-25 21:42 55.15995 -3.10209 14680 ft 343 kts 336°
2026-04-25 21:43 55.18191 -3.11824 14097 ft 342 kts 336°
2026-04-25 21:43 55.20379 -3.13438 13517 ft 340 kts 336°
2026-04-25 21:43 55.22538 -3.15038 12939 ft 337 kts 336°
2026-04-25 21:43 55.24682 -3.16633 12354 ft 332 kts 336°
2026-04-25 21:44 55.26757 -3.18179 11775 ft 321 kts 336°
2026-04-25 21:44 55.28795 -3.19699 11196 ft 310 kts 336°
2026-04-25 21:44 55.32642 -3.22569 10040 ft 299 kts 336°
2026-04-25 21:45 55.34552 -3.24004 9454 ft 297 kts 336°
2026-04-25 21:45 55.35800 -3.24947 9073 ft 295 kts 336°
2026-04-25 21:45 55.38298 -3.26829 8399 ft 290 kts 336°
2026-04-25 21:45 55.40147 -3.28219 8242 ft 290 kts 336°
2026-04-25 21:46 55.42004 -3.29622 8161 ft 290 kts 336°
2026-04-25 21:46 55.43874 -3.31033 8045 ft 290 kts 336°
2026-04-25 21:46 55.45727 -3.32428 7718 ft 287 kts 336°
2026-04-25 21:46 55.47554 -3.33803 7381 ft 285 kts 336°
2026-04-25 21:47 55.49361 -3.35160 7055 ft 283 kts 336°
2026-04-25 21:47 55.51169 -3.36522 6723 ft 282 kts 336°
2026-04-25 21:47 55.52966 -3.37876 6398 ft 280 kts 336°
2026-04-25 21:47 55.54718 -3.39197 6240 ft 260 kts 336°
2026-04-25 21:48 55.56289 -3.40373 6228 ft 240 kts 336°
2026-04-25 21:48 55.57843 -3.41537 6228 ft 238 kts 336°
2026-04-25 21:48 55.59352 -3.42666 6237 ft 238 kts 336°
2026-04-25 21:48 55.60877 -3.43807 6142 ft 239 kts 336°
2026-04-25 21:49 55.62408 -3.44953 5740 ft 236 kts 336°
2026-04-25 21:49 55.63918 -3.46095 5309 ft 235 kts 336°
2026-04-25 21:49 55.65400 -3.47225 4875 ft 233 kts 336°
2026-04-25 21:49 55.66890 -3.48374 4425 ft 233 kts 336°
2026-04-25 21:50 55.68359 -3.49516 4030 ft 231 kts 336°
2026-04-25 21:50 55.69847 -3.50684 3670 ft 232 kts 336°
2026-04-25 21:50 55.71305 -3.51842 3213 ft 231 kts 336°
2026-04-25 21:50 55.72764 -3.53027 2964 ft 230 kts 336°
2026-04-25 21:51 55.74207 -3.54225 2963 ft 231 kts 336°
2026-04-25 21:51 55.75674 -3.55450 2921 ft 231 kts 336°
2026-04-25 21:51 55.77123 -3.56671 2610 ft 231 kts 336°
2026-04-25 21:51 55.78547 -3.57905 2274 ft 226 kts 336°
2026-04-25 21:52 55.79959 -3.59164 2002 ft 226 kts 336°
2026-04-25 21:52 55.81361 -3.60443 1972 ft 226 kts 336°
2026-04-25 21:52 55.82829 -3.61316 1951 ft 219 kts
2026-04-25 21:52 55.84269 -3.60967 1957 ft 200 kts 17°
2026-04-25 21:53 55.85528 -3.60367 2024 ft 175 kts 19°
2026-04-25 21:53 55.86608 -3.59820 1957 ft 151 kts 20°
2026-04-25 21:53 55.87525 -3.58895 1989 ft 160 kts 49°
2026-04-25 21:53 55.88208 -3.57308 2001 ft 162 kts 59°
2026-04-25 21:54 55.88807 -3.55621 2011 ft 163 kts 61°
2026-04-25 21:54 55.89396 -3.53869 1996 ft 162 kts 62°
2026-04-25 21:54 55.89945 -3.52228 1902 ft 145 kts 62°
2026-04-25 21:54 55.90435 -3.50770 1690 ft 131 kts 62°
2026-04-25 21:55 55.90889 -3.49420 1497 ft 123 kts 62°
2026-04-25 21:55 55.91326 -3.48121 1330 ft 123 kts 61°
2026-04-25 21:55 55.91762 -3.46811 1143 ft 122 kts 61°
2026-04-25 21:55 55.92202 -3.45507 999 ft 122 kts 61°
2026-04-25 21:56 55.92629 -3.44196 886 ft 122 kts 61°
2026-04-25 21:56 55.92919 -3.43328 791 ft 122 kts 60°
2026-04-25 21:56 55.93510 -3.41605 525 ft 121 kts 60°
2026-04-25 21:56 55.93947 -3.40328 333 ft 121 kts 59°
2026-04-25 21:57 55.94378 -3.39066 179 ft 120 kts 59°
2026-04-25 21:57 55.94797 -3.37818 100 ft 100 kts 56°
2026-04-25 21:57 55.95006 -3.37221 98 ft 19 kts 58°
2026-04-25 21:57 55.95098 -3.36955 98 ft 28 kts 59°
2026-04-25 21:58 55.95197 -3.36668 99 ft 25 kts 58°
2026-04-25 21:58 55.95255 -3.36485 102 ft 7 kts 76°
2026-04-25 21:58 55.95234 -3.36397 102 ft 8 kts 142°
2026-04-25 21:58 55.95178 -3.36336 102 ft 7 kts 149°
2026-04-25 21:59 55.95172 -3.36329 102 ft 0 kts 148°
2026-04-25 22:00 55.95151 -3.36299 102 ft 8 kts 119°
2026-04-25 22:00 55.95121 -3.36152 102 ft 16 kts 109°
2026-04-25 22:01 55.95090 -3.35989 102 ft 12 kts 112°
2026-04-25 22:01 55.95050 -3.35861 104 ft 11 kts 136°
2026-04-25 22:01 55.94980 -3.35861 104 ft 11 kts 198°
2026-04-25 22:01 55.94933 -3.35842 105 ft 11 kts 137°
2026-04-25 22:02 55.94878 -3.35681 105 ft 11 kts 116°
2026-04-25 22:02 55.94854 -3.35632 105 ft 3 kts 181°
2026-04-25 22:02 55.94821 -3.35664 105 ft 6 kts 207°
2026-04-25 22:02 55.94795 -3.35689 106 ft 0 kts 208°